Regional Weather Roundup
Issued by NWS Albany, NY

Home | Current Version | Previous Version | Text Only | Print | Product List | Glossary On
Versions: 1 2 3 4 5 6 7 8 9 10 11 12 13 14 15 16 17 18 19 20 21 22 23 24 25 26 27 28
000
ASUS41 KALY 162110
RWRALY

NEW YORK STATE HOURLY WEATHER ROUNDUP
NATIONAL WEATHER SERVICE ALBANY NY
400 PM EST MON JAN 16 2017

NOTE: "FAIR" INDICATES FEW OR NO CLOUDS BELOW 12,000 FEET WITH NO
SIGNIFICANT WEATHER AND/OR NO OBSTRUCTIONS TO VISIBILITY.

NYZ032-033-038>043-046>054-057>066-NYZ062>081-082-084-162200-
EAST


CITY           SKY/WX    TMP DP  RH WIND       PRES   REMARKS
ALBANY         MOCLDY    37  18  46 S6        30.30R WCI  32
GLENS FALLS    CLOUDY    39  20  46 S9        30.27S WCI  33
POUGHKEEPSIE   PTCLDY    39  18  42 S6        30.31F WCI  35
NEWBURGH       PTCLDY    41  23  48 W7        30.32S
MONTGOMERY     PTCLDY    41  23  48 SW9       30.30S
WHITE PLAINS   PTCLDY    41  18  39 VRB3      30.32S
ISLIP          MOCLDY    38  24  57 SW12      30.35S WCI  30
NEW YORK CITY  MOCLDY    44  21  40 SW12      30.35S
CENTRAL PARK   CLEAR     42  22  44 W8        30.37S
$$

NYZ005>009-017-018-044>046-055-056-162200-
CENTRAL


CITY           SKY/WX    TMP DP  RH WIND       PRES   REMARKS
FULTON         CLOUDY    37  21  52 S5        30.29R WCI  33
SYRACUSE       CLOUDY    39  19  44 W5        30.28S
ROME           PTCLDY    36  22  56 W3        30.30S
ELMIRA         CLEAR     43  20  39 S3        30.27S
BINGHAMTON     CLOUDY    35  19  52 SW3       30.25S
MONTICELLO     CLOUDY    37  19  48 CALM      30.29S
$$

NYZ026>034-041>043-087-162200-
NORTH


CITY           SKY/WX    TMP DP  RH WIND       PRES   REMARKS
WATERTOWN      CLOUDY    35  26  69 SW12      30.28R WCI  27
FORT DRUM      NOT AVBL
OGDENSBURG     FAIR      34  29  80 SW10G20   30.22R WCI  26
MASSENA        CLEAR     36  26  67 SW18      30.20R WCI  26
SARANAC LAKE   CLEAR     32  13  45 SW13      30.15S WCI  22
PLATTSBURGH    CLEAR     35  21  56 SE9       30.16S WCI  28
$$

NYZ001>004-010>016-019>021-085-162200-
WEST


CITY           SKY/WX    TMP DP  RH WIND       PRES   REMARKS
NIAGARA FALLS  PTCLDY    37  24  59 SW9       30.27S WCI  30
BUFFALO        CLOUDY    35  20  54 SW8       30.28S WCI  29
DUNKIRK        CLOUDY    35  24  64 N8        30.29R WCI  29
JAMESTOWN      CLOUDY    36  19  51 S5        30.24S WCI  32
WELLSVILLE     CLOUDY    42  11  28 W3        30.24S
ROCHESTER      CLOUDY    40  19  43 SW7       30.28S
PENN YAN       CLOUDY    41  17  38 CALM      30.27S
$$

             KEY
       WCI = WIND CHILL INDEX
       VSB = VISIBILITY
       HX  = HEAT INDEX
$$




USA.gov is the U.S. government's official web portal to all federal, state and local government web resources and services.